Siloam Springs, AR

12:20 PM CDT on March 28, 2017 (GMT -0500)
Smith

Weather History for KSLG - November, 2012

Change the Weather History Date:

Saturday, November 24, 2012

  Actual Average Record
Temperature  
Mean Temperature 37 °F -  
Max Temperature 53 °F 53 °F 71 °F (2010)
Min Temperature 21 °F 35 °F 19 °F (2003)
Degree Days  
Heating Degree Days 28    
Moisture  
Dew Point 17 °F    
Average Humidity 51    
Maximum Humidity 80    
Minimum Humidity 26    
Precipitation  
Precipitation 0.00 in - - ()
Sea Level Pressure  
Sea Level Pressure 30.27 in    
Wind  
Wind Speed 3 mph (SSE)    
Max Wind Speed 12 mph    
Max Gust Speed -    
Visibility 10 miles    
Events      
Averages and records for this station are not official NWS values.
T = Trace of Precipitation, MM = Missing Value Source: NWS Daily Summary

Daily Weather History Graph

Daily Weather History Graph

Search for Another Location

Airport or City:

Trip Planner

Search our weather history database for the weather conditions in past years. The results will help you decide how hot, cold, wet, or windy it might be!

Date:

Astronomy

Nov. 24, 2012 Rise Set
Actual Time 7:04 AM CST 5:05 PM CST
Civil Twilight 6:36 AM CST 5:32 PM CST
Nautical Twilight 6:04 AM CST 6:04 PM CST
Astronomical Twilight 5:34 AM CST 6:35 PM CST
Moon 2:45 PM CST (11/24) 3:27 AM CST (11/24)
Length of Visible Light 10h 56m
Length of Day
10h 00m
Waxing Gibbous, 87% of the Moon is Illuminated
Nov 24
Waxing Gibbous
Nov 28
Full
Dec 6
Last Quarter
Dec 13
New
Dec 19
First Quarter

Hourly Weather History & Observations

Time (CST) Temp. Windchill Dew Point Humidity Pressure Visibility Wind Dir Wind Speed Gust Speed Precip Events Conditions
12:15 AM 28.4 °F - 15.8 °F 59% 30.44 in 10.0 mi Calm Calm - N/A   Clear
12:35 AM 26.6 °F - 15.8 °F 64% 30.44 in 10.0 mi Calm Calm - N/A   Clear
12:55 AM 28.4 °F - 17.6 °F 64% 30.43 in 10.0 mi Calm Calm - N/A   Clear
12:56 AM 28.4 °F - 17.6 °F 64% 30.43 in 10.0 mi Calm Calm - N/A   Clear
1:15 AM 28.4 °F - 15.8 °F 59% 30.42 in 10.0 mi Calm Calm - N/A   Clear
2:15 AM 26.6 °F - 15.8 °F 64% 30.40 in 10.0 mi Calm Calm - N/A   Clear
2:35 AM 26.6 °F 22.6 °F 15.8 °F 64% 30.40 in 10.0 mi NNE 3.5 mph - N/A   Clear
2:55 AM 26.6 °F - 15.8 °F 64% 30.39 in 10.0 mi Calm Calm - N/A   Clear
3:16 AM 24.8 °F 19.1 °F 14.0 °F 64% 30.40 in 10.0 mi North 4.6 mph - N/A   Clear
3:35 AM 24.8 °F - 15.8 °F 69% 30.40 in 10.0 mi Calm Calm - N/A   Clear
3:55 AM 24.8 °F 20.5 °F 12.2 °F 59% 30.39 in 10.0 mi SE 3.5 mph - N/A   Clear
4:35 AM 23.0 °F - 14.0 °F 68% 30.39 in 10.0 mi Calm Calm - N/A   Clear
4:55 AM 23.0 °F - 15.8 °F 74% 30.39 in 10.0 mi Calm Calm - N/A   Clear
5:15 AM 23.0 °F - 15.8 °F 74% 30.39 in 10.0 mi Calm Calm - N/A   Clear
5:36 AM 23.0 °F 18.4 °F 15.8 °F 74% 30.38 in 10.0 mi ESE 3.5 mph - N/A   Clear
5:55 AM 23.0 °F - 15.8 °F 74% 30.38 in 10.0 mi Calm Calm - N/A   Clear
6:15 AM 21.2 °F - 14.0 °F 74% 30.38 in 10.0 mi Calm Calm - N/A   Clear
6:35 AM 21.2 °F 14.9 °F 15.8 °F 80% 30.38 in 10.0 mi East 4.6 mph - N/A   Clear
6:55 AM 21.2 °F 14.9 °F 14.0 °F 74% 30.37 in 10.0 mi East 4.6 mph - N/A   Clear
6:56 AM 21.2 °F 14.9 °F 14.0 °F 74% 30.37 in 10.0 mi East 4.6 mph - N/A   Clear
7:15 AM 21.2 °F - 12.2 °F 68% 30.38 in 10.0 mi Calm Calm - N/A   Clear
7:35 AM 21.2 °F 16.4 °F 12.2 °F 68% 30.38 in 10.0 mi NW 3.5 mph - N/A   Clear
8:15 AM 26.6 °F - 17.6 °F 69% 30.37 in 10.0 mi Calm Calm - N/A   Clear
8:35 AM 28.4 °F 24.6 °F 19.4 °F 69% 30.37 in 10.0 mi ENE 3.5 mph - N/A   Clear
8:55 AM 30.2 °F 26.7 °F 19.4 °F 64% 30.37 in 10.0 mi ENE 3.5 mph - N/A   Clear
9:16 AM 33.8 °F 28.6 °F 19.4 °F 56% 30.37 in 10.0 mi East 5.8 mph - N/A   Clear
9:35 AM 35.6 °F 32.8 °F 19.4 °F 52% 30.37 in 10.0 mi East 3.5 mph - N/A   Clear
9:55 AM 37.4 °F 34.9 °F 17.6 °F 45% 30.37 in 10.0 mi SE 3.5 mph - N/A   Clear
10:15 AM 37.4 °F 32.8 °F 17.6 °F 45% 30.37 in 10.0 mi SSE 5.8 mph - N/A   Clear
10:35 AM 39.2 °F 37.0 °F 15.8 °F 39% 30.37 in 10.0 mi SSE 3.5 mph - N/A   Clear
11:55 AM 44.6 °F 41.4 °F 17.6 °F 34% 30.30 in 10.0 mi SSW 5.8 mph - N/A   Clear
12:15 PM 46.4 °F 44.3 °F 17.6 °F 32% 30.28 in 10.0 mi South 4.6 mph - N/A   Clear
12:35 PM 48.2 °F - 17.6 °F 30% 30.26 in 10.0 mi South 5.8 mph - N/A   Clear
12:55 PM 48.2 °F - 17.6 °F 30% 30.25 in 10.0 mi South 6.9 mph - N/A   Clear
1:15 PM 48.2 °F - 19.4 °F 32% 30.24 in 10.0 mi South 5.8 mph - N/A   Clear
1:55 PM 51.8 °F - 21.2 °F 30% 30.22 in 10.0 mi South 8.1 mph - N/A   Clear
2:15 PM 53.6 °F - 19.4 °F 26% 30.20 in 10.0 mi SSW 8.1 mph - N/A   Clear
2:35 PM 51.8 °F - 17.6 °F 26% 30.19 in 10.0 mi South 9.2 mph - N/A   Clear
2:56 PM 51.8 °F - 17.6 °F 26% 30.18 in 10.0 mi SSW 9.2 mph - N/A   Clear
3:55 PM 51.8 °F - 19.4 °F 28% 30.16 in 10.0 mi South 10.4 mph - N/A   Clear
4:15 PM 50.0 °F - 19.4 °F 30% 30.15 in 10.0 mi South 11.5 mph - N/A   Clear
4:35 PM 48.2 °F - 19.4 °F 32% 30.15 in 10.0 mi South 11.5 mph - N/A   Clear
4:56 PM 48.2 °F - 17.6 °F 30% 30.13 in 10.0 mi South 11.5 mph - N/A   Clear
5:15 PM 46.4 °F 41.5 °F 17.6 °F 32% 30.12 in 10.0 mi South 10.4 mph - N/A   Clear
5:35 PM 46.4 °F 41.1 °F 17.6 °F 32% 30.12 in 10.0 mi South 11.5 mph - N/A   Clear
5:55 PM 46.4 °F 41.9 °F 17.6 °F 32% 30.11 in 10.0 mi South 9.2 mph - N/A   Clear
6:15 PM 44.6 °F 39.7 °F 17.6 °F 34% 30.10 in 10.0 mi South 9.2 mph - N/A   Clear
6:35 PM 44.6 °F 39.2 °F 17.6 °F 34% 30.09 in 10.0 mi South 10.4 mph - N/A   Clear
7:35 PM 41.0 °F 37.1 °F 17.6 °F 39% 30.09 in 10.0 mi SSE 5.8 mph - N/A   Clear
8:15 PM 39.2 °F 37.0 °F 17.6 °F 42% 30.09 in 10.0 mi South 3.5 mph - N/A   Clear
8:36 PM 41.0 °F 37.1 °F 17.6 °F 39% 30.08 in 10.0 mi South 5.8 mph - N/A   Clear
8:55 PM 39.2 °F 34.2 °F 17.6 °F 42% 30.08 in 10.0 mi South 6.9 mph - N/A   Clear
9:15 PM 39.2 °F 34.2 °F 17.6 °F 42% 30.08 in 10.0 mi South 6.9 mph - N/A   Clear
10:15 PM 37.4 °F 32.1 °F 19.4 °F 48% 30.08 in 10.0 mi SSW 6.9 mph - N/A   Clear
10:35 PM 37.4 °F 30.8 °F 19.4 °F 48% 30.07 in 10.0 mi South 9.2 mph - N/A   Clear
11:15 PM 37.4 °F 32.1 °F 19.4 °F 48% 30.08 in 10.0 mi SSW 6.9 mph - N/A   Clear
11:55 PM 37.4 °F 30.3 °F 19.4 °F 48% 30.06 in 10.0 mi South 10.4 mph - N/A   Clear